sat.trackr.live / text

‹ back to catalog

KUIPER-00513

NORAD 69598 · 2026-140G

PAYLOAD ACTIVE UNKNOWN

§ Identity

Operator
Country
US
Launch date
2026-06-17
Launch site
FRGUI
Launch vehicle
Mass (kg)
RCS (m²)

External: N2YO · Heavens-Above · Gunter

§ Orbital elements

Epoch: 2026-09-19T20:37:27.370848Z

Period
97.30 min
Inclination
51.9008°
Eccentricity
0.0000373
Mean motion
14.79932696 rev/d
Perigee alt
629.3 km
Apogee alt
629.8 km
Semi-major
7,007.7 km
B*
2.4706e-4
RAAN
317.0280°
Arg perigee
78.4377°
Mean anomaly
281.6627°
Rev number
1,557

§ Raw data

KUIPER-005131 69598U 26140G   26262.85934457  .00001663  00000+0  24706-3 0  99902 69598  51.9008 317.0280 0000373  78.4377 281.6627 14.79932696 15578

JSON: /api/v1/satellites/69598 · /tle

For live sub-satellite position, see the globe view (requires WebGL).

§ Visibility from observer

Set your observer location to see the next 7 days of passes ≥ 10°. The values pass through the URL so the page stays shareable.

No JS? Fill the form by hand. The geolocation button needs JavaScript.